CZ-6A DEB, 58429

Orbit data source: Space-Track

CZ-6A DEB, 58429 is space debris in SSO originally from a launch on Fri, 11 Nov 2022 UTC launched from the Taiyaun Space Center, China (TSC). Debris objects in space refer to the collection of defunct objects orbiting the Earth. Examples of debris include non-operational satellites, rocket bodies, and fragments generated from explosions, collisions, or faulty payload assembly.

Loading next visibility...
Identifier
58429, 2022-151AHX
Orbit
SSO
Country
Flag of CNCN / PRC
Related business
Manufacturer
SAST
Mission
Spacecraft
Bus & Motor
Unknown
Mass
Unknown
Launch date (UTC)
2022-11-11 (4 years ago)
Launch vehicle
Unknown
Launch site
Taiyaun Space Center, China (TSC)
Object type
Payload
Rocket body
Debris
Shape & HBR
Unknown shape, 0.1 m
Radar Cross Section
Small (<0.1 m²)

Expand to show TLE details & history
Last TLE update: 14 hours ago

TLE from 14 hours ago
0 CZ-6A DEB
1 58429U 22151AHX 26236.39961744  .00001427  00000-0  82187-3 0  9994
2 58429  98.8803 227.2717 0082863 181.0126 179.0889 14.09047511173904
Epoch: 2026-08-24T09:35Z
TLE epoch observation values (Epoch: 2026-08-24T09:35:26.946Z)
Latitude
-0.00002°
Longitude
110.72756°
Altitude
925.531 km
Speed
7.358 km/s
True Right ascension
15h 09m 05s
True Declination
0° 00' 00"
Sunlit
Object was in daylight at epoch
Visualization orbit readout
Latitude
Unknown
Longitude
Unknown
Altitude
Unknown
Speed
Unknown
Apparent Right ascension
Unknown
Apparent Declination
Unknown
Sunlit
N/A
Visualization observer readout
Local Sidereal Time
15:05:21
Azimuth
Unknown
Elevation
Unknown
Doppler factor
Unknown
Orbital elements
Apogee altitude
919.79 km
Perigee altitude
799.838 km
Semi-major axis
7,237.951 km
Eccentricity
0.00829
Inclination
98.8803°
RAAN
227.2717°
Arg. of periapsis
181.0126°
True anomaly
179.10384°
Mean anomaly
179.0889°
Eccentric anomaly
179.09639°
Mean motion
3.52468 °/min
Orbital period
102.14 mins
BSTAR
0.00082187
Loading maneuver chart data...
Computing Atmospheric mass density...
Loading historical data...
Loading historical data...
Loading historical data...
Loading historical data...
Loading historical data...
Loading historical data...
Loading historical data...

Documentation

Showing up to 5 results
|